TimeEDT,TemperatureF,Dew PointF,Humidity,Sea Level PressureIn,VisibilityMPH,Wind Direction,Wind SpeedMPH,Gust SpeedMPH,PrecipitationIn,Events,Conditions,WindDirDegrees,DateUTC
12:13 AM,71.6,71.6,100,29.96,0.8,Calm,Calm,-,N/A,,Mist,0,2012-10-03 04:13:00
12:34 AM,71.6,71.6,100,29.96,1.0,Calm,Calm,-,N/A,,Mist,0,2012-10-03 04:34:00
12:54 AM,72.0,71.1,97,29.96,0.8,Calm,Calm,-,N/A,,Mist,0,2012-10-03 04:54:00
1:34 AM,71.6,71.6,100,29.96,1.5,Calm,Calm,-,0.00,Rain,Light Rain,0,2012-10-03 05:34:00
1:44 AM,71.6,71.6,100,29.96,2.5,Calm,Calm,-,0.00,,Overcast,0,2012-10-03 05:44:00
1:54 AM,72.0,71.1,97,29.96,1.5,Calm,Calm,-,0.00,,Overcast,0,2012-10-03 05:54:00
2:10 AM,71.6,71.6,100,29.97,0.5,Calm,Calm,-,N/A,Fog,Fog,0,2012-10-03 06:10:00
2:54 AM,72.0,71.1,97,29.97,0.5,Calm,Calm,-,N/A,Fog,Fog,0,2012-10-03 06:54:00
3:21 AM,71.6,71.6,100,29.98,0.2,Calm,Calm,-,N/A,Fog,Fog,0,2012-10-03 07:21:00
3:54 AM,72.0,71.1,97,29.98,0.2,Calm,Calm,-,0.01,Fog,Fog,0,2012-10-03 07:54:00
4:54 AM,72.0,71.1,97,29.99,0.2,Calm,Calm,-,N/A,Fog,Fog,0,2012-10-03 08:54:00
5:54 AM,72.0,71.1,97,30.00,0.2,SSE,3.5,-,N/A,Fog,Fog,150,2012-10-03 09:54:00
6:27 AM,71.6,71.6,100,30.02,0.5,Calm,Calm,-,N/A,Fog,Fog,0,2012-10-03 10:27:00
6:34 AM,71.6,71.6,100,30.02,0.2,Calm,Calm,-,N/A,Fog,Fog,0,2012-10-03 10:34:00
6:54 AM,72.0,72.0,100,30.02,0.2,Calm,Calm,-,N/A,Fog,Fog,0,2012-10-03 10:54:00
7:06 AM,71.6,71.6,100,30.03,0.5,Calm,Calm,-,0.02,Fog-Rain,Light Rain,0,2012-10-03 11:06:00
7:19 AM,71.6,71.6,100,30.03,2.0,Calm,Calm,-,0.10,Rain,Light Rain,0,2012-10-03 11:19:00
7:29 AM,71.6,71.6,100,30.03,1.8,Calm,Calm,-,0.10,,Overcast,0,2012-10-03 11:29:00
7:45 AM,73.4,71.6,94,30.04,0.5,Calm,Calm,-,0.10,Fog,Fog,0,2012-10-03 11:45:00
7:52 AM,73.4,71.6,94,30.04,0.2,Calm,Calm,-,0.10,Fog,Fog,0,2012-10-03 11:52:00
7:54 AM,73.0,72.0,96,30.04,0.2,Calm,Calm,-,0.10,Fog,Fog,0,2012-10-03 11:54:00
8:09 AM,73.4,71.6,94,30.04,0.8,Calm,Calm,-,N/A,,Overcast,0,2012-10-03 12:09:00
8:20 AM,73.4,73.4,100,30.04,1.2,Calm,Calm,-,N/A,,Overcast,0,2012-10-03 12:20:00
8:54 AM,73.9,73.0,97,30.06,2.5,Calm,Calm,-,N/A,,Overcast,0,2012-10-03 12:54:00
9:13 AM,73.4,73.4,100,30.06,3.0,Calm,Calm,-,N/A,,Overcast,0,2012-10-03 13:13:00
9:20 AM,73.4,73.4,100,30.06,3.0,Calm,Calm,-,N/A,,Overcast,0,2012-10-03 13:20:00
9:30 AM,73.4,73.4,100,30.06,3.0,Variable,3.5,-,N/A,,Overcast,0,2012-10-03 13:30:00
9:54 AM,75.0,73.9,96,30.05,4.0,Calm,Calm,-,N/A,,Mostly Cloudy,0,2012-10-03 13:54:00
10:15 AM,75.2,73.4,94,30.06,5.0,SW,3.5,-,N/A,,Mostly Cloudy,220,2012-10-03 14:15:00
10:44 AM,77.0,73.4,89,30.06,6.0,WSW,4.6,-,N/A,,Overcast,240,2012-10-03 14:44:00
10:54 AM,78.1,75.0,90,30.06,6.0,Variable,3.5,-,N/A,,Overcast,0,2012-10-03 14:54:00
11:54 AM,81.0,72.0,74,30.05,10.0,WSW,6.9,-,N/A,,Mostly Cloudy,240,2012-10-03 15:54:00
12:04 PM,80.6,71.6,74,30.06,10.0,Variable,5.8,-,N/A,,Partly Cloudy,0,2012-10-03 16:04:00
12:54 PM,84.0,71.1,65,30.06,10.0,SW,6.9,-,N/A,,Clear,230,2012-10-03 16:54:00
1:54 PM,82.0,71.1,69,30.05,10.0,West,8.1,-,N/A,,Clear,260,2012-10-03 17:54:00
2:54 PM,82.0,69.1,65,30.05,10.0,West,6.9,-,N/A,,Clear,260,2012-10-03 18:54:00
4:54 PM,80.1,66.0,62,30.06,10.0,WSW,9.2,-,N/A,,Clear,250,2012-10-03 20:54:00
5:54 PM,78.1,66.9,68,30.07,10.0,Calm,Calm,-,N/A,,Clear,0,2012-10-03 21:54:00
6:54 PM,73.9,68.0,82,30.08,10.0,Calm,Calm,-,N/A,,Clear,0,2012-10-03 22:54:00
7:54 PM,73.0,69.1,87,30.10,10.0,Calm,Calm,-,N/A,,Clear,0,2012-10-03 23:54:00
8:54 PM,72.0,69.1,91,30.10,10.0,Calm,Calm,-,N/A,,Clear,0,2012-10-04 00:54:00
9:54 PM,70.0,68.0,93,30.12,10.0,Calm,Calm,-,N/A,,Partly Cloudy,0,2012-10-04 01:54:00
10:54 PM,70.0,68.0,93,30.12,8.0,Calm,Calm,-,N/A,,Clear,0,2012-10-04 02:54:00
11:54 PM,69.1,68.0,96,30.13,9.0,Calm,Calm,-,N/A,,Clear,0,2012-10-04 03:54:00